Temp
15 16 15 15 16 16 14 13 13 13 13 13 13 13 13 13 13 13 14 12 11 13 13 12 12 12 12 12 12 12 10 8 8 8 8 8 8 8 7 7 7 7 8 8 8 8 8 9 9 9 9 9 9 9 9 9 9 8 8 8 8 8 8 7 7 7 7 6 6 6 6 6 5 5 5 5 5 5 5 5 4 4 4 4 4 4
15 15 15 15 15 14 13 12 12 12 12 12 13 13 12 12 12 13 13 12 11 12 13 12 12 12 12 12 12 12 11 10 9 9 9 9 9 8 8 8 8 8 8 8 8 8 8 8 8 8 8 9 8 8 8 8 8 8 8 8 8 8 7 7 7 7 7 6 6 6 6 6 5 5 5 5 5 5 5 4 4 4 4 4 4 4
15 15 15 13 11 11 12 11 12 12 12 12 12 12 13 12 12 12 11 11 11 12 13 12 11 12 12 12 12 12 11 11 11 10 10 10 9 9 9 9 8 8 8 8 8 7 7 8 8 8 8 8 9 8 8 8 8 8 8 8 8 8 7 7 7 7 6 6 6 6 6 6 6 5 5 5 5 5 4 4 4 4 4 3 3 3
15 15 13 11 10 12 12 12 11 12 12 12 12 12 13 12 12 14 12 11 11 11 12 12 10 11 12 12 13 12 11 11 11 11 10 10 10 10 10 9 9 8 8 8 8 7 7 7 7 7 7 8 8 8 8 7 7 7 7 7 7 7 7 7 7 6 6 6 6 6 6 6 6 5 5 5 5 5 4 4 4 4 4 3 3 3
15 13 10 10 11 12 12 12 12 12 12 12 12 12 13 12 12 13 12 10 11 11 10 11 11 12 14 14 15 14 11 11 11 10 11 10 10 10 10 10 10 9 9 8 8 8 7 7 7 7 7 7 7 7 7 7 7 7 7 7 7 7 7 7 7 6 6 6 6 5 5 5 5 5 4 4 4 4 4 4 4 4 4 3 3 3
14 11 9 11 11 11 12 12 12 12 12 12 12 12 12 12 12 12 11 11 13 12 11 11 13 14 15 14 15 14 12 12 11 10 11 10 9 9 9 10 10 10 9 9 9 8 7 7 7 7 7 7 7 7 7 7 7 7 7 7 7 7 7 7 6 6 6 6 5 5 4 4 4 3 4 4 4 4 4 4 4 4 4 3 3 3
12 9 9 11 11 11 11 11 11 11 12 13 12 11 11 11 11 11 11 12 13 13 11 11 12 13 13 14 15 13 12 13 13 12 12 10 9 9 9 10 10 10 9 9 9 8 7 7 7 7 7 7 7 7 7 7 7 7 7 7 6 6 7 6 6 6 5 5 5 5 5 4 4 3 3 4 4 5 5 4 4 4 3 3 3 3
11 10 10 10 11 11 11 12 11 10 13 13 10 9 10 11 11 11 11 11 11 11 10 9 10 11 11 14 14 12 13 15 15 15 15 12 10 9 9 9 10 10 10 9 9 8 8 7 7 7 7 7 7 7 7 7 7 7 7 6 6 6 6 6 6 5 5 5 5 5 5 4 4 4 4 4 4 5 5 4 4 4 3 3 3 3
10 11 11 10 11 11 11 12 10 11 13 12 9 8 9 10 10 9 9 10 9 10 11 10 10 11 12 13 13 12 14 16 17 18 19 18 14 10 10 9 9 10 10 9 9 9 8 7 7 7 7 7 7 7 7 7 7 7 6 6 6 6 6 6 6 5 5 5 5 5 4 4 4 4 4 4 4 4 4 4 4 4 3 3 3 2
10 10 10 10 11 11 11 10 8 10 12 10 8 8 8 8 8 8 9 9 9 10 12 11 10 12 13 15 15 14 15 17 18 19 19 18 14 11 10 10 9 9 9 9 9 9 8 7 8 8 7 7 7 7 7 7 7 6 6 6 5 5 5 5 5 5 5 5 4 4 4 4 3 3 3 3 3 3 3 3 3 3 3 3 2 2
9 8 8 9 11 11 10 8 7 9 9 8 8 10 10 8 7 8 8 9 10 11 13 11 10 12 14 15 16 16 17 18 19 19 18 17 16 14 12 10 9 9 9 9 9 9 8 8 8 8 7 7 7 7 7 6 6 6 6 5 5 5 5 5 5 5 5 5 4 4 4 4 3 3 3 3 3 3 3 3 3 3 3 3 2 2
9 8 9 9 9 9 9 9 7 7 7 9 10 11 12 11 9 9 9 9 11 13 13 10 9 11 13 16 17 16 15 15 17 18 19 18 19 18 15 10 9 9 9 9 9 8 8 7 7 6 6 7 6 6 6 6 6 5 5 5 5 4 4 4 5 5 5 5 4 4 4 3 3 3 3 3 3 3 3 3 3 3 2 2 2 2
12 10 9 9 8 9 11 11 9 8 8 9 11 11 12 12 12 12 12 11 11 13 12 9 9 11 12 14 16 15 14 14 14 15 17 18 18 19 17 13 10 9 9 8 9 8 8 8 6 5 5 6 5 5 5 5 5 5 5 5 4 4 4 4 4 4 4 4 4 4 3 3 3 3 3 3 3 3 3 3 3 2 2 2 2 1
15 11 8 9 10 9 11 12 12 11 9 9 11 12 13 12 12 13 13 11 12 12 10 9 10 11 12 14 15 15 15 15 13 13 14 15 16 17 16 13 10 9 8 8 8 8 8 7 5 4 5 5 5 5 5 5 5 5 4 4 4 4 4 4 4 4 4 4 4 4 3 3 3 3 3 3 3 3 3 3 2 2 2 2 1 1
16 15 12 12 12 10 10 12 13 12 10 9 10 11 12 13 13 13 13 13 14 12 10 9 11 12 14 15 15 14 14 14 14 13 12 12 12 12 11 11 10 10 9 7 7 8 7 6 5 5 5 5 5 5 5 5 4 4 4 4 4 4 4 4 3 3 3 4 4 3 3 3 3 3 3 3 3 3 3 2 2 2 2 2 1 1
15 17 13 9 9 8 10 10 10 12 12 9 9 10 11 12 13 13 12 12 12 10 10 10 11 12 13 14 14 14 14 14 13 13 13 13 12 10 10 12 12 10 8 7 7 7 7 5 4 4 5 5 5 5 4 4 4 4 4 4 4 4 4 4 3 3 3 3 3 3 3 2 3 3 3 3 3 2 2 2 2 2 1 1 1 1
15 16 11 7 8 8 9 9 9 11 13 10 9 11 11 10 12 13 11 9 9 9 10 11 12 12 13 14 15 15 15 15 14 13 13 13 11 10 12 14 12 10 8 6 6 6 6 4 3 4 4 4 5 5 4 4 4 4 4 4 4 3 3 3 3 3 3 2 2 2 2 2 2 2 2 2 2 2 2 1 1 1 1 1 0 -0
14 15 11 9 11 9 6 8 9 9 11 11 11 12 10 9 11 12 11 10 10 10 10 10 11 13 13 14 15 15 16 16 15 14 14 13 12 12 14 14 11 9 7 6 5 5 5 3 1 2 3 4 4 4 4 4 4 4 3 3 3 3 3 3 2 2 2 2 2 2 2 2 2 2 2 2 2 1 1 1 1 0 0 -0 -1 -1
12 14 12 8 10 9 6 8 11 9 9 10 10 10 10 11 11 10 10 11 11 11 11 10 10 11 12 14 15 15 16 17 16 15 15 15 15 14 14 12 10 7 7 7 6 5 5 3 0 1 2 3 3 3 3 3 3 3 3 3 3 2 2 2 2 1 1 1 1 1 1 2 2 1 1 1 1 1 0 0 -0 -0 -1 -1 -1 -2
11 14 13 8 7 8 8 9 12 11 8 8 8 8 9 10 11 11 10 10 11 11 11 11 11 11 12 13 15 15 16 16 15 15 15 14 14 12 11 10 9 7 7 7 6 6 5 2 -0 1 2 2 2 2 2 2 2 2 2 2 2 2 1 1 1 1 1 1 1 1 1 1 1 1 0 0 0 -0 -0 -0 -1 -1 -1 -2 -2 -2
12 13 13 10 7 8 10 10 12 13 11 9 8 8 9 9 10 10 9 9 11 11 11 10 11 13 13 12 13 14 14 13 12 12 13 11 10 10 8 8 8 7 7 7 6 5 4 1 -0 1 1 1 2 2 2 2 2 1 1 1 1 1 0 0 0 0 0 0 0 0 0 0 -0 -0 -0 -1 -1 -1 -1 -1 -1 -1 -2 -2 -3 -3
12 12 12 12 10 10 13 12 11 13 13 11 10 9 10 9 9 10 9 9 10 10 11 10 10 13 13 9 10 11 10 9 8 8 9 8 8 8 7 6 6 6 7 7 5 5 4 1 -0 0 1 1 1 1 1 1 1 1 1 1 1 0 -0 -0 -0 -1 -1 -1 -1 -1 -1 -1 -1 -1 -1 -1 -2 -2 -2 -2 -2 -2 -3 -3 -3 -4
11 11 11 12 12 12 13 11 9 10 10 11 10 10 10 9 10 11 11 10 10 9 10 9 9 12 11 6 6 7 7 6 6 6 6 6 6 6 6 6 6 5 6 5 5 4 2 0 -0 0 0 -0 0 0 0 0 0 0 0 0 -0 -0 -1 -1 -1 -1 -1 -1 -2 -2 -2 -2 -2 -2 -2 -2 -2 -3 -3 -3 -3 -3 -4 -4 -4 -5
10 11 11 11 12 13 12 9 7 7 8 10 10 9 9 9 10 11 10 9 10 10 10 9 9 11 9 5 5 5 5 5 5 5 5 5 5 5 5 5 5 5 5 4 4 3 1 -0 -0 -1 -1 -1 -1 -1 -0 -0 -0 -0 -0 -1 -1 -1 -1 -1 -2 -2 -2 -2 -3 -3 -3 -3 -3 -3 -3 -3 -3 -3 -4 -4 -4 -4 -5 -5 -5 -6
11 12 11 10 11 12 12 11 9 8 9 9 9 9 9 9 9 9 9 8 9 10 10 9 9 12 8 4 4 5 4 4 4 4 5 4 4 5 5 5 4 4 4 3 3 3 2 1 -0 -1 -1 -1 -1 -1 -1 -1 -1 -1 -1 -1 -1 -1 -2 -2 -2 -3 -3 -3 -3 -4 -4 -4 -4 -4 -4 -4 -4 -4 -4 -5 -5 -6 -6 -6 -6 -6
11 11 11 11 10 10 11 13 12 11 10 9 9 8 8 9 9 9 9 8 8 9 10 9 9 12 8 3 3 4 3 3 3 4 4 4 4 4 4 4 3 2 2 2 2 2 2 2 1 -0 -1 -1 -1 -1 -1 -2 -2 -2 -2 -2 -2 -2 -2 -3 -3 -3 -3 -4 -4 -4 -4 -4 -4 -5 -5 -5 -5 -5 -5 -6 -6 -6 -7 -7 -7 -7
10 10 10 10 11 10 11 13 12 10 10 10 9 9 8 8 8 8 7 8 8 8 9 9 10 11 6 1 1 2 2 2 2 3 3 3 4 3 2 2 1 1 1 1 1 1 2 2 2 1 0 -0 -1 -1 -1 -2 -2 -2 -2 -2 -2 -3 -3 -3 -3 -4 -4 -4 -5 -5 -5 -5 -5 -5 -5 -6 -6 -6 -6 -7 -7 -7 -7 -7 -8 -8
10 9 9 9 10 10 11 11 10 9 8 9 9 8 8 7 7 7 6 7 8 8 7 9 11 8 2 -0 0 1 1 1 1 2 2 2 3 2 1 1 0 -0 -0 -0 -0 0 1 2 2 1 1 0 -0 -1 -1 -1 -2 -2 -2 -2 -3 -3 -3 -3 -4 -4 -5 -5 -5 -5 -5 -5 -5 -6 -6 -6 -7 -7 -7 -7 -8 -8 -8 -8 -8 -8
9 9 9 9 8 9 9 8 9 8 8 8 7 6 6 6 5 5 5 6 6 6 5 6 7 4 -0 -1 -0 0 1 1 1 1 1 2 2 1 -0 -0 -1 -1 -1 -1 -1 -0 0 1 0 0 1 0 0 -0 -1 -1 -2 -2 -2 -3 -3 -3 -4 -4 -4 -5 -5 -5 -6 -6 -6 -6 -6 -6 -7 -7 -7 -7 -8 -8 -8 -8 -8 -9 -9 -9
7 8 8 8 8 8 8 8 8 7 7 7 5 3 3 4 4 2 2 3 3 3 3 2 2 1 -0 -1 -0 0 1 1 0 1 1 1 1 -0 -1 -1 -2 -1 -1 -2 -1 -1 -0 -0 -0 -0 -0 -0 -0 -0 -1 -1 -1 -2 -2 -3 -3 -3 -4 -4 -5 -5 -5 -6 -6 -6 -6 -7 -7 -7 -7 -7 -7 -8 -8 -8 -9 -9 -9 -9 -9 -9
7 7 7 7 7 7 8 8 7 6 6 5 2 0 1 2 2 1 0 1 0 1 1 0 0 -0 -0 -0 -0 0 1 0 -0 -0 -0 0 -0 -1 -1 -2 -2 -2 -2 -2 -1 -1 -1 -1 -1 -1 -1 -1 -1 -1 -1 -1 -1 -1 -2 -3 -3 -3 -4 -5 -5 -5 -6 -6 -6 -7 -7 -7 -7 -7 -7 -8 -8 -8 -9 -9 -9 -10 -10 -10 -10 -10
6 6 6 7 6 6 7 7 6 6 7 4 -1 -1 0 1 1 1 -0 -0 -0 -0 -0 -1 -1 -1 -1 -1 -0 -0 0 -0 -1 -1 -1 -0 -1 -2 -2 -2 -2 -2 -2 -2 -1 -1 -1 -1 -1 -1 -2 -2 -2 -2 -1 -1 -1 -1 -2 -2 -2 -3 -4 -5 -6 -6 -6 -6 -7 -7 -7 -8 -8 -8 -8 -8 -9 -9 -9 -9 -10 -10 -10 -10 -10 -10
5 5 6 6 5 5 6 6 5 5 6 3 -1 -1 -0 0 1 1 0 -0 -0 -1 -1 -2 -2 -1 -1 -1 -1 -1 -1 -1 -1 -1 -1 -1 -2 -2 -2 -3 -2 -2 -2 -2 -2 -2 -1 -1 -2 -2 -2 -2 -2 -2 -2 -2 -2 -1 -1 -1 -2 -3 -4 -5 -6 -6 -6 -7 -7 -8 -8 -8 -8 -8 -9 -9 -9 -9 -10 -10 -11 -11 -11 -11 -11 -11
4 4 5 5 4 5 6 5 5 5 5 2 -0 -1 -1 -0 0 0 -0 -1 -1 -1 -2 -2 -1 -2 -2 -1 -1 -1 -1 -1 -1 -1 -1 -1 -2 -3 -3 -3 -3 -2 -2 -2 -2 -2 -2 -1 -2 -2 -2 -3 -2 -3 -3 -2 -2 -2 -1 -0 -2 -3 -4 -5 -6 -6 -7 -7 -8 -8 -8 -8 -9 -9 -9 -10 -10 -10 -10 -11 -11 -11 -11 -11 -11 -12
5 4 4 4 4 4 5 4 5 5 3 1 0 0 -0 0 1 0 -0 -1 -1 -2 -2 -2 -2 -2 -2 -2 -1 -1 -2 -2 -2 -1 -1 -1 -2 -3 -3 -3 -3 -2 -3 -3 -3 -2 -2 -2 -2 -2 -3 -3 -3 -3 -3 -3 -3 -2 -2 -1 -2 -4 -4 -5 -6 -7 -7 -8 -8 -8 -9 -9 -9 -10 -10 -10 -11 -11 -11 -11 -12 -12 -12 -12 -12 -12
5 4 4 4 4 4 4 5 4 3 1 -1 -0 -0 -1 -0 -0 -1 -1 -1 -2 -2 -3 -3 -3 -3 -3 -2 -1 -2 -2 -2 -2 -1 -0 -1 -2 -3 -3 -3 -3 -3 -3 -3 -3 -3 -3 -3 -3 -3 -3 -3 -4 -4 -4 -4 -3 -3 -3 -2 -3 -4 -5 -6 -7 -7 -8 -8 -8 -9 -9 -9 -10 -10 -11 -11 -11 -12 -12 -12 -12 -12 -12 -12 -12 -12
4 4 3 3 4 3 3 3 4 3 1 -1 -2 -1 -2 -1 -1 -2 -1 -1 -3 -3 -3 -3 -3 -3 -3 -2 -2 -2 -2 -2 -3 -2 -1 -1 -2 -3 -3 -3 -3 -3 -4 -3 -3 -3 -3 -4 -4 -4 -4 -4 -4 -4 -4 -4 -4 -4 -4 -4 -4 -5 -6 -7 -8 -8 -8 -8 -9 -9 -9 -10 -10 -11 -11 -12 -12 -12 -13 -13 -13 -13 -12 -12 -13 -13
3 3 3 3 3 3 2 2 3 3 2 -2 -3 -2 -1 -1 -1 -1 -1 -1 -2 -3 -3 -3 -4 -3 -3 -3 -2 -2 -3 -3 -4 -3 -2 -2 -3 -3 -3 -3 -3 -3 -4 -4 -4 -4 -4 -5 -5 -5 -5 -5 -5 -5 -5 -5 -5 -5 -5 -5 -5 -6 -7 -7 -8 -8 -8 -9 -9 -9 -10 -10 -11 -11 -12 -12 -12 -13 -13 -13 -13 -13 -13 -13 -13 -13
2 2 2 2 2 2 1 1 1 2 0 -2 -3 -2 -1 -1 -0 -1 -1 -1 -2 -3 -3 -3 -4 -4 -3 -3 -3 -3 -4 -4 -4 -3 -2 -3 -3 -3 -3 -3 -3 -4 -4 -4 -4 -5 -5 -5 -5 -5 -6 -6 -6 -6 -6 -6 -6 -6 -6 -5 -6 -7 -7 -8 -8 -8 -8 -9 -9 -10 -11 -11 -11 -11 -12 -12 -12 -13 -13 -13 -13 -13 -13 -13 -13 -14
1 1 1 1 0 0 -0 -1 0 1 -0 -2 -2 -2 -1 -1 -1 -1 -1 -1 -3 -4 -3 -3 -4 -4 -3 -4 -4 -4 -4 -5 -4 -4 -3 -3 -3 -3 -4 -4 -4 -4 -5 -5 -5 -5 -5 -6 -6 -7 -7 -7 -7 -7 -7 -6 -6 -7 -6 -6 -6 -7 -8 -8 -8 -8 -9 -9 -10 -11 -11 -11 -11 -12 -12 -12 -13 -13 -13 -13 -14 -14 -14 -14 -14 -14
0 -0 -0 -0 -1 -1 -1 -2 -1 0 -1 -3 -2 -1 -1 -1 -1 -2 -2 -3 -4 -4 -3 -4 -4 -4 -4 -4 -5 -5 -5 -5 -4 -4 -3 -3 -4 -4 -4 -5 -5 -5 -5 -5 -6 -6 -6 -7 -7 -7 -7 -8 -8 -8 -7 -7 -7 -7 -7 -7 -7 -8 -8 -8 -9 -9 -9 -10 -11 -11 -11 -11 -12 -12 -12 -12 -13 -13 -13 -14 -14 -14 -14 -14 -14 -15
-1 -1 -1 -1 -2 -2 -1 -2 -2 -1 -1 -3 -2 -1 -1 -3 -3 -3 -3 -4 -4 -4 -4 -4 -4 -5 -5 -5 -6 -6 -6 -5 -5 -4 -4 -4 -5 -5 -5 -6 -6 -6 -6 -6 -6 -7 -7 -8 -8 -8 -8 -9 -9 -9 -8 -8 -8 -8 -8 -8 -8 -8 -9 -9 -10 -10 -10 -11 -11 -11 -11 -12 -12 -12 -12 -13 -13 -13 -14 -14 -14 -14 -14 -15 -15 -15
-2 -2 -2 -2 -2 -2 -2 -2 -2 -2 -1 -2 -2 -2 -2 -4 -4 -4 -4 -4 -4 -4 -4 -5 -5 -6 -6 -7 -7 -6 -6 -6 -5 -5 -4 -5 -5 -6 -6 -6 -6 -7 -7 -7 -7 -7 -8 -8 -9 -9 -9 -10 -9 -9 -9 -9 -9 -9 -8 -9 -9 -10 -10 -10 -10 -11 -11 -11 -11 -12 -12 -12 -12 -12 -13 -13 -13 -14 -14 -14 -15 -15 -15 -15 -16 -16
-2 -2 -3 -2 -2 -3 -3 -3 -2 -2 -2 -2 -2 -3 -3 -3 -3 -4 -5 -5 -4 -4 -5 -5 -6 -6 -7 -7 -7 -6 -6 -6 -6 -6 -6 -6 -6 -6 -6 -6 -7 -8 -7 -7 -7 -8 -8 -9 -10 -10 -10 -10 -10 -10 -10 -10 -10 -10 -10 -10 -10 -11 -11 -11 -11 -11 -11 -12 -12 -12 -12 -12 -13 -13 -13 -13 -14 -14 -15 -15 -15 -15 -16 -16 -16 -16
-1 -1 -2 -3 -2 -2 -3 -2 -2 -2 -2 -1 -2 -3 -3 -3 -3 -4 -5 -5 -5 -5 -5 -6 -6 -7 -7 -7 -7 -7 -7 -7 -7 -7 -7 -7 -6 -6 -7 -7 -8 -8 -8 -7 -8 -8 -9 -10 -10 -10 -11 -11 -11 -11 -11 -11 -11 -11 -11 -11 -11 -11 -11 -11 -12 -12 -12 -13 -13 -13 -13 -13 -13 -14 -14 -14 -14 -15 -15 -15 -16 -16 -16 -17 -17 -17
-1 -1 -2 -3 -2 -2 -2 -2 -2 -2 -2 -2 -2 -2 -2 -3 -4 -4 -5 -5 -5 -5 -5 -6 -7 -7 -7 -7 -7 -7 -8 -8 -8 -8 -7 -7 -7 -7 -8 -8 -8 -8 -8 -8 -8 -9 -10 -10 -11 -11 -11 -11 -11 -11 -11 -11 -12 -12 -12 -12 -12 -12 -12 -12 -12 -13 -13 -13 -13 -13 -13 -14 -14 -14 -15 -15 -15 -15 -15 -16 -16 -17 -17 -17 -18 -18
-2 -2 -3 -3 -3 -4 -4 -2 -2 -2 -2 -3 -3 -3 -3 -3 -4 -4 -5 -5 -5 -5 -5 -6 -6 -7 -7 -7 -7 -8 -8 -8 -8 -8 -8 -8 -8 -8 -8 -9 -8 -8 -8 -8 -9 -10 -10 -11 -11 -11 -11 -12 -12 -12 -12 -12 -12 -12 -12 -12 -12 -12 -12 -13 -13 -13 -14 -14 -14 -14 -14 -14 -15 -15 -15 -16 -16 -16 -16 -16 -17 -17 -17 -18 -18 -19
-2 -2 -3 -3 -4 -4 -4 -3 -2 -3 -3 -3 -4 -4 -3 -4 -4 -4 -5 -5 -5 -5 -6 -6 -6 -7 -7 -7 -7 -8 -8 -8 -8 -8 -8 -8 -8 -8 -9 -9 -9 -9 -9 -9 -9 -10 -10 -11 -12 -12 -12 -12 -12 -12 -12 -12 -12 -12 -13 -13 -13 -13 -13 -13 -13 -14 -14 -14 -14 -15 -15 -15 -15 -15 -16 -16 -16 -17 -17 -17 -17 -17 -18 -18 -18 -19
-2 -3 -3 -4 -4 -4 -4 -3 -3 -4 -4 -4 -4 -4 -4 -4 -5 -5 -5 -5 -5 -5 -6 -6 -6 -6 -7 -7 -7 -8 -8 -8 -8 -9 -9 -9 -8 -8 -9 -9 -10 -9 -9 -9 -10 -10 -11 -11 -12 -12 -13 -13 -13 -13 -13 -13 -13 -13 -13 -13 -13 -13 -13 -13 -14 -14 -14 -15 -15 -15 -15 -16 -16 -16 -16 -17 -17 -17 -17 -17 -17 -17 -17 -17 -18 -18
-3 -3 -4 -4 -5 -5 -4 -4 -4 -6 -6 -5 -5 -4 -4 -4 -5 -5 -5 -5 -5 -5 -6 -6 -6 -6 -6 -7 -7 -8 -8 -9 -9 -9 -9 -9 -9 -9 -9 -10 -10 -10 -9 -10 -10 -11 -11 -12 -12 -13 -13 -14 -14 -14 -14 -13 -13 -13 -13 -13 -14 -14 -14 -14 -14 -15 -15 -16 -16 -16 -16 -16 -17 -17 -17 -17 -17 -17 -18 -18 -18 -18 -18 -18 -18 -18
-4 -4 -4 -5 -5 -5 -5 -4 -5 -5 -6 -5 -5 -5 -4 -4 -5 -5 -5 -5 -6 -6 -6 -6 -6 -7 -7 -7 -7 -8 -8 -9 -9 -9 -9 -9 -9 -9 -10 -10 -10 -10 -10 -10 -11 -11 -11 -12 -13 -13 -14 -14 -14 -14 -14 -14 -14 -14 -14 -14 -14 -14 -14 -15 -15 -16 -16 -16 -16 -16 -16 -17 -17 -17 -17 -18 -18 -18 -19 -19 -19 -18 -18 -18 -18 -18
Height
822 823 826 824 821 822 825 828 828 829 831 830 830 829 829 830 826 821 819 822 825 819 814 816 816 809 801 796 794 797 803 805 802 800 799 797 797 797 798 796 796 795 791 791 795 797 798 800 802 804 805 808 809 810 812 814 815 816 818 819 820 823 826 828 830 831 832 834 835 837 838 839 841 844 846 847 848 849 850 852 853 854 855 856 857 858
824 825 824 822 824 827 829 832 832 832 832 831 831 830 831 833 827 821 822 823 825 821 815 817 816 806 798 793 788 792 797 794 791 793 791 790 790 790 791 791 789 788 788 791 793 794 796 797 799 801 802 804 805 806 808 809 810 812 814 815 816 819 823 824 825 827 827 829 830 831 834 836 839 841 842 843 845 847 848 849 850 851 852 853 854 856
826 824 823 827 833 832 830 833 833 832 832 831 834 832 828 831 827 822 826 827 826 822 813 815 816 802 792 790 784 785 787 782 779 782 781 781 785 785 784 783 784 786 787 788 788 789 791 793 795 797 798 799 800 802 804 805 807 809 810 811 813 816 818 820 821 822 823 825 827 829 831 834 836 838 839 841 843 844 846 847 847 848 849 850 852 853
826 822 827 834 835 830 829 832 833 832 832 830 832 830 825 830 828 818 822 827 825 824 818 817 821 806 788 784 777 776 780 776 774 776 775 777 777 775 775 775 778 781 781 782 783 785 787 789 792 792 793 795 797 799 800 801 803 804 805 807 809 812 814 816 818 819 821 824 827 829 830 833 834 836 838 840 841 842 843 844 844 845 846 847 849 850
822 825 834 835 832 831 829 831 832 830 830 829 829 827 823 825 826 821 826 830 823 824 826 820 815 798 780 777 769 767 776 773 772 774 771 772 772 770 770 771 773 774 774 777 778 780 783 785 786 786 788 791 792 793 793 795 797 799 801 803 805 808 810 812 814 817 820 822 825 827 829 832 833 834 835 836 836 837 838 839 840 841 843 844 846 847
822 830 836 832 832 833 830 829 830 828 828 828 824 823 823 822 824 826 829 828 817 817 821 819 812 790 775 777 769 764 771 768 769 771 766 766 769 769 770 767 767 769 770 772 773 775 777 778 779 781 783 785 786 786 788 790 792 795 797 800 802 804 806 808 811 814 817 819 821 823 824 826 827 828 828 828 828 830 832 833 835 838 839 841 843 844
827 835 836 831 831 833 832 830 830 831 829 825 823 827 829 828 826 827 828 825 817 815 818 822 820 803 784 774 766 768 770 764 764 764 759 762 765 765 765 762 762 764 765 767 768 769 771 771 774 776 777 778 779 780 783 787 789 792 794 796 798 800 802 804 807 810 813 815 816 817 818 819 821 821 821 822 824 826 828 830 833 835 836 838 840 841
830 834 835 835 833 833 832 827 828 831 825 821 829 834 831 829 827 828 830 828 827 825 823 826 825 817 802 776 765 774 769 757 756 753 750 754 758 759 758 757 757 757 757 760 761 762 764 766 768 769 770 771 772 776 781 783 785 787 789 791 793 796 798 800 803 806 808 810 811 813 815 816 817 817 818 820 822 824 826 829 830 832 833 835 837 838
831 829 830 833 833 833 829 825 829 828 820 823 835 838 834 832 831 834 835 833 838 834 818 820 824 816 802 776 767 775 765 752 748 742 738 739 746 753 753 752 752 751 753 754 756 757 759 761 762 763 764 766 769 773 776 777 779 782 785 787 790 792 794 796 799 801 803 805 807 809 811 812 813 815 817 819 820 822 824 826 827 829 831 832 833 835
830 829 831 831 828 827 824 829 835 827 822 830 839 839 839 841 838 839 839 834 841 833 807 808 817 807 789 767 762 768 760 749 742 736 736 736 742 749 749 749 748 749 751 751 752 753 754 756 756 758 762 764 767 769 771 773 776 779 782 784 785 787 789 792 794 796 798 801 803 805 806 808 810 812 815 817 818 820 821 823 824 825 827 829 830 832
833 836 836 831 825 824 827 835 839 833 832 836 836 832 830 838 842 842 843 839 835 818 796 802 811 804 788 763 754 756 747 740 736 734 737 736 737 740 742 745 745 745 747 747 748 750 750 752 754 758 760 761 763 766 769 772 773 775 777 779 781 783 785 788 790 792 794 796 798 800 801 803 805 807 810 813 814 816 817 819 820 821 823 825 827 828
832 833 830 828 826 828 829 832 837 838 839 834 830 825 820 825 833 834 838 839 824 799 791 810 818 810 794 761 741 744 743 742 739 733 732 731 728 730 734 740 741 741 743 744 746 747 749 752 754 757 757 758 762 764 766 767 769 771 773 775 777 779 782 784 786 788 789 792 793 794 797 798 800 803 805 807 808 810 812 814 816 818 820 822 824 825
818 824 828 826 827 828 823 824 832 836 836 832 828 827 822 821 822 817 817 824 816 798 799 817 817 806 790 761 742 743 740 740 743 737 732 731 728 726 729 734 738 740 741 741 743 743 746 749 750 752 752 755 758 759 760 762 764 767 769 771 773 774 777 780 782 784 786 787 788 790 792 794 796 798 800 802 804 805 807 809 812 814 816 818 820 821
805 818 829 824 819 823 819 815 816 820 830 832 824 821 818 819 818 809 809 815 808 798 805 817 811 796 779 756 743 740 732 730 739 741 737 733 731 727 727 732 736 738 739 739 739 741 743 744 744 746 748 750 753 753 756 758 761 763 765 767 768 770 773 776 778 780 782 783 784 786 788 790 792 794 796 798 800 802 804 806 808 809 811 813 815 817
806 803 810 812 810 817 817 811 808 812 825 830 824 822 816 811 810 803 800 798 790 795 809 815 803 781 760 743 736 735 733 732 735 737 738 736 735 734 733 734 735 734 735 737 737 738 739 739 741 743 744 746 748 749 752 755 757 759 761 762 764 766 769 771 773 776 777 779 781 783 785 787 789 790 793 795 796 798 800 802 804 806 808 810 812 814
813 796 803 816 817 819 816 815 818 812 813 825 829 825 815 807 802 801 804 803 802 809 812 804 787 766 749 738 735 734 732 732 733 733 734 732 733 737 736 731 730 731 734 736 736 736 737 738 740 741 743 744 745 747 749 751 753 754 756 757 759 761 764 767 769 771 773 776 778 780 782 784 786 788 790 791 793 796 797 799 802 804 806 807 809 811
810 798 809 822 818 820 819 816 820 811 804 819 824 812 811 814 803 798 810 820 823 815 798 785 772 758 750 737 728 728 726 725 728 729 730 731 734 737 731 727 729 732 735 737 737 737 737 739 740 740 741 742 744 745 746 746 748 749 751 753 756 759 762 764 766 768 770 773 775 777 779 781 783 784 786 788 790 792 795 797 799 801 803 805 807 808
809 798 806 815 807 816 826 820 818 816 809 812 812 805 810 817 810 806 810 814 818 810 792 782 769 757 754 739 724 725 725 722 725 726 729 731 733 732 727 727 732 735 738 739 738 739 739 739 739 739 741 742 743 744 744 745 747 749 751 752 754 756 757 759 761 765 767 769 771 773 775 778 779 781 783 785 787 790 792 794 796 798 800 801 803 805
815 802 802 817 814 815 827 821 810 813 815 810 808 811 809 805 804 810 812 803 802 798 784 779 775 766 758 740 724 724 723 721 725 728 729 728 727 729 729 730 736 739 740 739 739 740 739 739 739 739 740 741 742 743 744 746 748 749 750 751 753 754 755 757 760 762 765 766 769 770 773 775 777 779 781 783 785 787 789 791 793 795 796 798 800 802
816 806 800 816 824 818 819 816 801 800 815 818 816 816 812 807 802 803 808 802 793 786 776 771 767 758 751 739 727 726 725 725 730 731 731 733 734 737 738 738 740 743 743 741 741 741 741 740 739 739 740 741 742 743 744 745 746 748 749 750 752 753 755 757 759 760 762 764 766 769 771 773 775 777 779 781 783 784 786 788 790 792 793 795 797 799
816 813 802 809 825 818 804 800 791 785 798 810 815 815 811 810 807 802 807 804 792 784 780 777 764 742 740 742 734 732 735 737 742 742 741 745 746 747 749 748 746 745 743 742 743 743 742 742 741 741 742 742 743 743 744 745 745 746 748 749 750 752 753 755 757 758 760 763 765 767 769 771 773 775 777 779 781 782 784 786 787 789 791 792 794 796
812 814 806 802 810 803 783 782 786 780 782 790 796 798 797 801 804 802 801 796 791 787 779 775 762 738 741 756 753 750 754 757 760 759 755 756 755 753 753 752 751 749 746 745 745 744 744 743 743 743 743 743 743 743 743 744 745 745 746 748 749 751 752 754 755 757 759 761 763 765 767 769 771 773 775 777 779 780 782 784 785 787 788 790 792 793
813 814 813 801 793 785 778 784 791 788 787 789 789 788 790 795 795 790 786 783 787 788 780 781 773 750 753 771 771 768 771 770 769 768 765 763 761 759 757 754 754 753 751 750 749 747 746 744 744 743 743 743 743 743 743 743 743 744 745 747 748 749 751 753 755 757 759 761 762 764 766 768 769 771 773 775 776 778 780 782 784 785 786 788 789 791
813 811 810 802 788 777 778 790 800 799 796 792 788 791 794 793 788 785 787 788 786 778 775 784 777 756 763 779 776 775 777 774 773 772 771 769 766 765 763 760 759 758 756 756 753 752 751 749 748 747 746 745 744 743 743 743 743 744 745 746 747 748 750 752 754 756 758 759 761 763 765 766 768 770 771 773 774 776 778 780 782 783 785 786 788 789
809 806 805 807 800 785 777 780 787 794 797 793 791 795 796 793 792 793 795 798 792 775 770 780 769 750 765 784 778 776 780 779 780 779 777 776 773 770 768 765 765 764 762 761 759 757 755 754 754 753 750 749 747 745 744 743 744 744 744 745 746 747 749 751 753 754 756 758 760 761 763 764 766 768 769 771 773 774 777 778 780 782 783 784 786 787
807 805 804 806 808 803 791 778 777 786 793 793 794 798 797 796 797 796 794 795 790 775 770 778 764 744 763 789 788 787 790 788 787 784 781 781 778 776 775 772 772 771 769 768 765 762 760 758 757 755 754 752 750 748 747 746 745 745 745 745 746 747 748 749 750 752 753 755 757 758 760 762 764 766 768 770 771 773 775 777 778 780 781 782 784 785
811 810 806 803 802 799 788 777 782 794 795 791 792 794 796 798 798 800 801 796 788 780 775 770 757 754 781 806 804 801 801 799 796 791 787 786 783 781 782 780 778 778 776 773 770 766 763 760 758 757 755 753 751 750 749 748 747 747 746 745 745 746 747 747 748 749 751 752 754 755 757 759 761 764 766 768 770 772 774 775 777 778 779 781 782 782
814 810 804 805 803 794 786 784 791 801 801 798 797 796 797 801 801 803 803 791 784 786 781 765 755 775 809 822 815 811 808 805 804 799 794 792 789 788 787 785 782 780 778 776 773 769 766 763 761 758 756 754 752 750 749 748 747 746 745 745 745 745 745 745 746 747 748 750 751 752 753 755 758 760 763 766 768 770 772 774 775 776 777 779 780 779
819 811 805 809 807 798 798 800 800 803 803 801 804 808 809 809 809 810 805 796 794 795 792 783 779 798 823 826 820 818 813 809 808 804 800 796 793 792 790 787 785 783 781 779 776 773 770 766 764 761 758 755 753 751 749 747 745 745 744 743 743 743 743 744 744 745 746 747 747 748 750 753 755 757 760 763 765 768 770 771 773 774 776 778 778 777
824 817 810 811 809 801 801 804 804 807 806 806 817 829 827 819 819 824 821 815 814 811 810 811 809 815 825 826 822 819 813 812 810 805 801 798 794 793 792 789 789 786 784 782 779 775 772 769 767 764 761 758 755 752 750 748 745 743 742 742 742 741 741 742 742 742 743 743 744 746 748 750 753 755 757 760 762 765 767 769 771 772 774 776 776 775
826 821 815 816 813 805 802 804 808 811 809 817 834 841 836 828 826 832 833 828 826 824 821 822 820 820 823 822 821 817 812 811 809 803 800 798 796 795 794 792 790 787 785 783 779 776 773 770 767 764 763 761 758 756 752 749 746 743 741 741 739 738 739 739 740 739 739 740 741 744 746 747 750 752 754 756 759 761 763 766 768 770 772 773 773 773
829 826 820 820 820 812 804 806 812 811 806 824 848 850 842 837 833 835 837 834 833 833 829 828 829 828 825 820 817 813 810 809 808 804 801 798 797 797 795 792 790 787 785 782 778 775 772 769 767 764 763 762 759 757 754 750 747 743 741 739 737 736 737 736 736 736 736 738 739 741 743 744 747 749 751 753 755 757 760 763 765 768 769 770 771 771
834 831 826 827 828 819 807 808 815 810 804 824 853 857 848 842 837 836 837 836 835 835 835 837 837 834 829 824 818 813 811 810 808 805 801 798 799 798 794 793 792 788 786 782 778 776 772 769 767 765 763 761 759 757 754 750 747 742 739 736 734 734 734 733 733 733 733 735 737 738 740 742 744 746 748 750 753 755 758 760 762 765 767 768 768 769
837 835 831 833 832 822 811 813 816 811 812 830 849 854 850 845 841 839 838 838 837 836 838 839 836 833 831 826 821 816 813 811 810 806 802 800 800 796 793 795 794 790 786 783 780 777 773 769 766 764 762 760 758 755 752 749 745 740 736 733 731 730 730 729 729 729 730 732 733 735 737 739 741 743 746 748 751 753 755 757 760 762 764 765 766 767
834 835 832 831 832 825 817 819 817 812 823 840 845 846 846 841 837 838 837 837 839 838 838 839 835 833 831 825 821 818 814 811 810 805 800 798 798 797 795 795 793 789 787 784 780 776 773 770 766 762 760 757 755 753 749 746 743 738 734 731 728 726 725 725 725 726 727 729 730 733 735 736 739 741 743 746 749 751 753 755 758 760 762 763 764 765
834 835 835 832 830 826 821 819 818 820 834 845 842 839 840 835 833 837 835 835 840 839 838 838 834 830 828 823 819 817 814 810 806 801 797 796 796 799 799 796 792 790 789 786 782 778 774 772 769 765 761 757 755 752 748 743 740 736 731 728 725 723 722 722 722 723 724 726 727 729 731 733 736 738 741 744 746 749 751 753 756 757 759 760 762 764
836 834 838 836 831 830 830 826 822 821 832 845 847 845 847 845 843 845 840 835 837 838 836 834 830 826 824 820 817 815 812 808 802 797 795 796 798 800 800 796 792 790 788 786 783 780 776 773 769 765 761 757 753 750 747 742 737 733 729 725 723 721 720 720 719 720 722 723 724 725 727 730 733 736 739 741 744 746 748 751 753 755 756 758 760 761
841 838 841 840 835 836 839 837 829 822 830 850 857 851 850 848 843 843 840 832 830 834 833 831 831 829 824 820 816 813 810 807 801 795 792 795 797 796 795 794 792 790 787 783 780 776 773 770 766 762 759 755 750 747 744 739 734 730 726 722 720 719 717 717 717 718 719 719 720 722 725 727 730 733 736 739 741 743 746 749 751 752 754 755 757 759
844 844 842 842 843 845 847 848 842 832 838 855 857 847 844 842 836 837 835 826 827 833 833 832 834 831 826 822 818 814 812 808 801 792 789 790 791 790 790 789 788 787 785 782 779 774 769 765 761 757 754 750 744 740 737 734 730 726 722 719 718 716 715 714 714 714 715 716 719 721 723 726 729 731 734 736 739 741 744 746 748 750 752 754 756 757
848 850 849 851 853 853 855 857 849 840 845 854 852 846 844 837 833 835 831 823 827 833 833 833 833 829 826 824 821 818 816 811 803 795 790 788 786 786 786 785 784 783 781 778 777 773 768 763 759 754 750 746 741 736 733 730 726 722 719 717 715 714 712 711 711 712 714 716 718 720 723 725 728 730 732 735 737 740 742 744 746 748 750 752 754 756
855 857 856 858 861 859 860 863 855 845 849 855 850 846 843 834 833 839 837 832 834 834 831 831 831 828 827 826 824 822 818 813 808 801 793 789 786 784 783 783 782 780 778 775 773 770 766 763 758 754 749 745 741 736 731 727 723 719 716 714 712 711 710 710 711 713 714 716 718 720 722 725 727 729 731 734 736 738 740 742 744 746 748 750 752 754
864 865 861 861 865 862 861 864 858 846 846 852 848 843 844 846 848 846 841 839 839 834 830 830 831 830 829 828 827 824 817 811 807 801 794 791 788 785 783 781 779 777 775 773 769 767 764 760 756 752 748 744 740 735 730 726 721 717 714 713 711 710 710 710 711 712 714 715 717 719 722 724 726 728 730 732 735 736 738 740 742 744 746 748 750 752
867 870 869 866 865 864 863 864 860 851 846 848 847 844 848 854 854 846 841 841 838 833 831 832 833 833 831 829 826 821 815 810 805 799 794 790 788 785 783 780 778 776 773 770 766 764 762 758 754 750 746 742 738 734 729 725 720 716 714 713 711 711 711 711 712 712 714 716 717 719 721 723 725 727 729 731 733 735 737 739 741 743 744 746 748 750
867 870 873 869 866 869 871 864 857 853 849 849 851 852 851 849 846 843 842 839 834 831 832 833 832 832 832 829 823 817 813 809 804 799 795 791 787 785 781 779 778 775 772 768 765 763 760 757 752 748 744 741 737 733 729 725 721 717 715 713 712 712 711 712 712 713 714 715 716 718 720 722 724 726 728 730 732 734 736 737 739 741 742 744 746 747
865 865 870 871 866 867 868 860 853 852 850 849 852 851 847 843 841 842 841 837 833 832 832 832 830 828 828 826 821 816 813 810 806 802 797 791 787 783 780 778 777 774 770 767 763 761 758 755 751 747 742 739 736 732 728 725 722 718 716 714 713 712 712 712 712 712 713 714 716 717 719 721 723 725 726 728 730 732 734 735 737 739 740 742 743 745
865 864 868 870 866 863 861 854 852 853 850 849 850 848 844 841 840 839 837 835 834 832 831 830 828 825 824 822 818 814 811 808 805 801 796 791 786 782 779 777 774 772 769 764 761 758 756 753 750 746 741 737 734 731 728 725 722 720 717 715 714 713 713 712 712 713 713 714 715 717 718 720 722 724 725 727 728 730 731 733 735 736 738 740 741 742
865 866 868 868 867 868 862 852 849 851 850 849 849 845 842 840 839 837 836 834 832 830 828 827 825 822 820 818 815 810 806 804 802 797 792 789 784 780 777 774 771 770 767 762 759 757 754 751 748 745 742 737 733 731 728 725 723 721 718 717 715 714 714 713 713 713 714 715 716 717 718 719 721 723 724 725 727 728 730 731 733 735 736 737 738 739
865 866 867 867 867 868 861 850 847 848 848 848 849 845 840 838 836 834 833 831 828 826 824 824 822 820 817 814 811 807 803 801 799 794 790 786 781 777 774 772 769 766 763 759 757 754 752 750 747 744 741 738 734 731 728 725 723 721 719 718 716 715 715 714 714 714 714 715 716 717 718 719 720 721 723 724 725 727 728 729 731 732 733 734 735 736
865 866 866 866 866 863 857 851 849 845 839 840 843 843 839 836 833 831 830 827 824 822 820 819 818 816 813 810 807 803 799 796 795 792 788 784 779 775 771 769 767 764 760 756 754 752 750 747 745 742 740 737 734 731 728 725 723 721 719 718 717 716 715 715 715 715 715 715 716 717 718 719 720 721 722 723 724 725 726 727 728 729 730 731 732 733
866 867 866 867 867 863 858 855 855 851 843 837 838 838 836 834 832 829 825 822 821 819 817 814 811 809 808 806 803 799 795 791 789 787 784 781 777 773 770 768 765 761 758 755 752 750 748 745 743 741 738 735 733 730 727 725 723 720 719 718 717 716 716 715 715 715 715 716 716 717 718 718 719 720 721 721 722 723 724 725 727 728 728 729 730 731
867 867 868 870 869 864 859 857 857 855 849 841 838 837 834 832 829 825 821 820 818 817 815 811 807 803 800 799 798 796 792 787 784 781 779 776 773 771 769 766 763 759 756 753 750 748 745 743 741 739 737 734 732 729 727 724 722 720 719 718 717 716 716 715 715 715 715 716 716 716 717 718 718 719 719 720 721 722 723 724 725 726 726 727 728 729
Wind_Speed
3 1 2 5 6 6 5 6 6 4 4 3 2 2 4 4 6 6 5 6 0 1 7 7 8 13 16 16 13 9 8 11 14 13 12 12 11 11 12 13 14 15 16 19 24 28 30 32 32 32 33 34 35 37 38 40 41 41 41 40 40 40 39 39 38 37 36 35 34 34 34 34 32 30 30 29 28 27 27 26 25 24 23 22 21 21
3 2 6 7 8 6 5 3 2 1 2 1 2 3 4 3 6 6 4 6 3 0 5 3 5 14 16 16 15 8 8 13 16 15 15 16 14 11 13 16 16 14 12 12 17 23 28 30 31 32 33 34 35 36 39 41 43 42 42 42 41 41 41 41 40 39 39 39 39 37 37 35 33 32 32 31 30 29 28 27 26 26 25 24 23 23
3 5 8 7 5 4 1 2 4 2 1 1 2 1 4 3 5 6 3 5 3 1 5 3 5 15 18 16 16 12 11 14 14 15 16 16 14 13 14 16 14 13 11 11 14 19 26 30 32 32 33 36 38 38 39 41 42 42 42 42 42 42 43 42 42 42 41 41 40 38 37 36 34 33 33 32 30 29 29 28 28 27 27 26 25 25
2 5 6 4 3 3 2 3 4 2 1 2 2 2 5 4 1 4 4 5 3 2 5 5 6 13 16 12 13 12 10 11 11 12 14 13 13 16 16 14 13 14 15 14 13 15 22 27 30 32 33 35 36 37 40 41 41 43 44 43 43 44 44 43 43 42 42 40 38 37 35 34 33 32 32 31 30 30 29 29 28 29 29 28 27 26
6 5 2 3 5 4 1 1 2 1 3 3 5 5 5 4 4 5 4 5 5 3 3 4 6 8 8 7 10 7 3 7 7 7 11 11 13 14 13 13 13 15 15 15 15 13 16 23 29 34 35 35 35 38 41 43 44 44 45 45 45 45 44 44 43 43 42 39 37 35 31 30 31 29 29 31 32 32 30 30 30 29 29 28 27 26
7 5 2 3 3 4 3 3 3 5 2 4 4 7 7 5 5 4 5 5 4 5 2 2 4 6 6 7 12 8 4 8 5 5 11 10 10 10 11 12 12 13 13 13 15 14 16 22 29 33 35 36 37 40 42 44 46 45 45 46 45 45 44 44 44 44 43 41 40 37 34 32 32 30 31 35 37 36 34 33 31 30 29 28 28 27
3 1 3 4 3 3 2 4 5 6 3 3 4 5 6 5 3 1 3 3 1 4 3 3 2 6 7 10 14 8 7 11 7 7 11 9 8 9 11 12 11 12 12 12 13 14 16 21 25 28 34 37 39 42 43 42 44 44 44 45 45 45 44 44 44 44 44 43 42 41 40 37 36 34 36 39 39 38 37 35 32 30 30 29 28 28
2 1 3 3 3 2 3 5 5 8 7 3 4 5 6 3 2 2 3 1 3 4 4 2 5 4 6 9 10 5 8 11 10 10 12 9 9 10 11 12 12 13 13 12 13 14 16 20 24 28 35 40 42 42 41 41 43 45 44 45 45 45 44 44 44 44 45 44 43 43 42 40 39 38 38 38 38 37 36 34 32 31 31 30 29 28
2 3 4 4 3 3 5 5 6 8 5 4 4 4 2 2 3 4 5 2 1 3 5 3 5 2 6 8 6 4 7 11 11 11 11 10 9 9 11 12 12 13 12 12 13 14 15 19 27 33 36 39 41 40 41 44 45 45 44 43 44 44 44 44 45 45 46 46 45 43 42 40 39 39 37 35 35 34 33 32 32 31 31 30 30 29
1 3 6 6 4 5 6 4 4 6 3 3 4 4 3 3 2 3 4 2 2 2 6 6 6 3 5 8 5 2 4 9 10 10 9 10 9 8 10 11 11 10 9 11 13 13 16 23 31 34 34 36 39 40 42 44 43 43 43 41 42 45 45 45 46 46 47 46 45 44 43 41 39 38 35 32 32 32 31 31 31 31 30 30 30 30
2 1 3 4 4 6 4 1 1 3 3 2 4 3 4 5 3 3 2 3 3 3 8 7 9 4 3 6 5 4 6 7 7 7 8 8 9 8 9 10 10 9 9 10 11 11 15 23 27 28 29 33 37 39 38 39 40 41 42 42 43 44 45 45 46 47 47 47 46 46 45 44 42 40 37 33 33 34 33 33 32 31 31 31 31 30
3 0 2 2 3 4 5 2 2 3 2 3 4 3 3 4 3 4 4 3 2 6 7 4 6 5 3 7 6 6 8 7 7 7 8 9 10 9 8 9 9 9 9 9 9 9 11 14 17 21 27 31 32 33 36 39 40 40 42 42 42 42 43 44 46 47 48 48 48 47 46 45 44 42 41 38 37 37 36 35 33 31 30 30 29 29
3 4 3 1 1 5 5 2 2 4 4 4 3 4 2 3 3 3 3 1 3 7 5 1 4 3 6 10 11 12 14 11 9 9 9 10 10 10 9 9 8 7 8 8 8 9 9 9 12 18 25 27 29 33 37 39 39 39 41 42 42 43 44 44 45 47 47 48 48 48 47 46 45 43 42 41 40 38 38 36 35 33 32 31 30 29
4 4 1 1 2 3 7 4 2 2 2 4 4 4 3 1 1 4 4 3 4 6 4 1 2 3 5 8 13 17 20 14 8 9 11 11 11 12 10 8 6 6 8 8 8 8 9 9 12 18 24 27 29 34 37 37 38 39 40 41 43 44 44 44 45 46 47 48 48 48 47 46 45 44 43 42 41 39 38 38 37 36 34 33 32 31
1 5 2 5 2 4 7 6 5 5 4 4 4 5 4 4 3 5 4 4 6 5 4 2 1 4 4 4 7 12 13 10 6 8 9 10 11 10 9 8 7 7 7 7 8 8 9 11 14 18 22 26 30 34 35 36 37 38 39 41 43 43 44 45 45 46 47 48 47 47 46 45 45 44 43 42 40 39 39 38 37 36 34 33 32 30
3 6 5 1 1 6 6 4 5 5 2 3 3 4 2 5 5 3 4 5 2 3 4 2 3 6 5 6 9 10 12 9 7 8 7 10 10 6 7 9 9 7 6 6 7 8 8 9 13 17 20 25 29 30 33 35 37 39 40 41 43 44 44 45 45 46 46 46 45 45 45 45 44 43 42 41 39 39 39 38 37 35 34 32 30 29
2 6 3 2 1 5 6 3 2 2 1 1 3 3 5 5 6 1 3 1 2 3 5 3 6 6 3 9 11 11 14 12 7 6 7 8 7 5 7 9 7 7 5 5 6 6 6 6 10 15 18 22 25 27 32 36 39 41 41 40 41 41 40 42 44 45 44 43 43 44 44 44 44 43 42 41 40 39 38 36 35 34 32 31 30 29
2 5 5 3 3 4 3 3 3 3 4 4 3 5 3 2 3 2 1 3 2 4 5 3 8 7 1 6 7 3 8 9 6 5 5 6 6 6 8 8 7 6 5 5 5 5 5 5 8 12 16 19 22 25 29 31 33 35 36 37 38 39 40 42 43 43 42 42 42 43 43 43 43 42 41 40 39 38 37 35 34 33 32 31 30 30
2 3 6 1 2 2 1 1 4 5 4 4 3 3 2 3 1 2 2 2 2 5 5 3 7 6 4 6 8 5 7 9 7 6 6 7 7 6 8 8 7 6 6 6 5 5 5 5 7 11 14 17 19 21 23 25 26 29 31 33 35 37 38 39 40 40 41 41 41 42 42 41 40 40 39 38 38 37 36 35 34 33 32 31 30 29
2 1 5 2 0 1 2 1 3 3 1 1 2 3 0 3 4 2 2 2 3 4 7 4 4 5 6 7 9 9 9 9 8 6 6 7 7 7 7 8 9 7 6 6 6 6 6 6 8 10 12 15 17 18 20 21 24 26 28 29 31 33 34 34 37 38 39 40 40 39 39 39 38 38 38 37 37 37 36 35 34 33 32 31 30 29
1 1 4 4 3 1 2 5 7 6 4 3 2 3 2 2 1 0 2 2 4 4 5 4 6 7 5 4 6 9 7 7 6 6 6 7 8 8 7 7 8 8 7 7 6 6 6 7 9 9 10 12 14 16 18 20 23 25 26 28 29 30 31 33 35 37 37 38 38 38 38 38 38 37 37 36 36 36 35 34 33 32 31 30 29 29
1 3 3 4 3 4 8 8 8 8 7 6 6 6 6 5 3 1 5 3 3 4 4 4 8 8 3 4 5 6 8 9 9 8 8 9 10 10 9 8 8 8 9 8 7 7 6 6 8 8 9 11 14 16 19 20 22 24 26 28 28 29 30 32 34 34 35 35 36 36 37 37 37 36 36 35 35 34 34 33 32 31 30 29 28 28
2 2 2 6 7 9 11 4 2 4 2 2 3 3 4 4 5 5 7 4 2 3 1 1 6 5 4 6 9 9 9 10 10 11 12 12 12 13 13 12 12 10 10 10 9 8 6 7 8 9 10 12 15 17 19 21 23 25 26 27 28 29 30 31 32 32 32 33 34 34 35 35 36 35 35 34 34 33 32 31 31 30 29 28 28 27
1 2 2 6 7 9 7 3 5 3 3 1 4 2 3 3 2 3 5 2 1 5 3 0 5 3 5 7 8 11 13 13 14 15 14 12 12 12 13 13 13 13 13 13 12 9 8 9 9 8 9 12 14 16 18 20 22 23 24 26 28 29 29 29 30 30 31 32 32 32 33 34 34 34 34 33 33 32 31 31 30 29 28 28 28 27
2 1 1 3 6 9 7 5 5 4 2 2 4 1 1 4 5 4 3 0 3 9 7 2 7 5 4 11 13 16 18 17 15 14 13 12 12 12 12 12 12 13 14 16 15 14 12 10 9 9 12 13 15 16 18 19 21 22 24 25 27 28 28 29 29 30 31 31 31 31 32 33 33 33 33 33 32 31 31 30 30 29 28 28 28 28
2 2 2 3 6 8 8 8 5 3 2 2 2 4 2 4 7 4 3 4 6 10 8 5 10 8 5 15 18 18 19 18 17 15 13 13 12 12 12 12 12 13 15 16 16 15 13 11 10 11 14 16 17 16 16 17 19 21 22 24 26 27 28 29 30 30 31 31 31 32 32 32 33 32 32 32 31 31 30 30 30 29 29 28 28 28
1 2 4 7 9 10 12 12 4 5 5 8 9 11 7 3 6 4 2 6 7 8 7 9 13 9 9 17 18 17 16 16 16 16 15 14 13 12 12 13 13 13 14 15 15 15 14 14 13 15 17 17 17 16 16 17 18 20 22 23 25 26 28 29 30 31 32 32 32 32 33 33 33 33 32 31 30 30 30 30 30 29 29 28 28 28
0 6 6 7 10 14 16 15 9 8 9 12 13 15 13 9 5 4 7 11 10 8 9 13 13 7 9 14 17 16 15 14 14 15 15 13 11 11 12 13 15 16 16 16 16 16 16 15 15 18 22 22 17 16 17 18 19 21 23 24 25 27 29 30 31 32 32 32 32 33 34 34 34 33 32 31 30 30 30 30 30 29 28 28 28 27
2 6 4 2 9 15 14 12 10 8 9 9 9 10 12 12 10 7 10 12 10 8 9 12 11 8 11 14 15 15 14 13 14 14 13 11 9 10 13 15 17 17 17 18 17 16 15 16 16 18 24 28 25 20 17 18 20 22 24 25 26 28 30 30 31 32 32 33 33 34 35 34 33 33 32 31 31 30 31 31 30 29 29 28 28 26
2 4 3 2 9 14 12 7 5 5 6 6 8 11 12 11 10 8 8 10 8 5 7 12 9 8 11 13 13 13 11 10 12 13 13 11 10 12 14 16 17 17 16 17 16 15 14 15 16 18 23 28 30 29 24 21 23 24 25 26 27 29 30 31 31 32 33 34 35 34 33 33 33 32 32 32 32 31 31 31 30 30 30 29 27 24
1 2 2 3 6 13 10 5 4 5 5 5 11 15 14 11 9 9 9 11 8 6 9 12 8 8 10 11 11 12 10 10 12 15 15 12 10 12 13 15 16 17 17 17 16 14 14 15 15 17 21 25 29 32 30 28 27 27 26 26 29 31 31 31 32 33 34 35 34 33 33 33 33 33 33 33 33 32 32 31 31 31 30 29 27 24
0 2 4 5 4 11 7 5 7 10 7 6 14 18 17 11 9 7 6 8 7 6 10 12 9 9 12 13 13 12 12 14 15 15 15 11 9 11 13 15 18 17 17 17 16 15 16 16 15 15 19 25 29 31 32 32 31 28 27 29 32 32 30 31 33 34 34 34 32 32 33 34 34 34 34 33 33 32 32 31 31 31 30 29 27 25
1 1 4 3 3 10 9 7 9 12 8 2 8 13 14 10 9 7 4 5 7 5 7 8 5 7 11 13 15 15 15 17 15 15 14 10 8 11 14 18 20 18 16 15 15 16 17 16 15 17 21 26 28 30 32 34 33 30 29 31 32 30 30 32 34 34 33 33 32 33 34 34 34 34 33 33 32 32 31 31 31 31 31 29 27 25
2 1 3 1 1 8 11 9 9 8 6 1 5 8 10 8 9 11 6 3 6 6 5 4 4 8 11 11 13 15 15 14 14 15 14 7 7 11 16 18 17 15 14 14 15 16 16 17 21 24 26 28 31 33 33 34 35 34 34 32 29 29 31 33 34 33 33 32 32 33 33 33 33 33 32 32 31 31 31 31 31 31 30 28 26 25
3 2 3 2 2 4 6 6 7 6 3 2 4 5 8 5 4 9 6 2 5 8 7 8 8 10 12 11 11 12 13 14 14 15 14 5 7 13 17 17 15 14 15 17 17 17 18 21 26 29 31 33 35 35 35 34 35 36 35 31 28 29 32 33 33 32 32 31 31 32 32 32 32 31 31 30 30 30 30 30 30 29 28 27 26 27
2 2 2 1 2 3 3 3 6 3 3 3 2 5 13 9 6 9 5 1 6 9 9 10 11 11 12 12 11 10 12 16 15 12 8 5 11 14 15 15 14 14 15 16 18 21 24 26 28 30 33 35 36 35 35 36 36 36 35 30 27 28 30 31 31 31 31 30 31 32 33 33 32 30 30 29 29 29 29 29 29 29 28 26 26 27
0 0 2 1 0 1 3 5 5 3 3 3 5 6 10 9 9 11 8 2 4 7 8 12 14 15 15 15 13 12 14 15 12 6 2 7 11 13 13 14 15 16 18 21 24 26 29 32 34 35 35 35 35 35 35 36 36 35 33 28 25 26 28 29 29 29 30 30 31 32 32 32 31 30 29 29 29 29 29 29 29 28 28 27 27 28
3 2 2 1 1 2 3 5 5 4 4 3 6 7 7 8 11 11 10 6 2 9 12 14 15 17 18 17 17 18 16 12 11 8 5 7 10 11 13 15 16 19 23 26 28 29 33 36 37 36 35 35 37 38 36 35 35 33 30 27 25 25 26 27 28 28 29 31 31 31 31 31 31 30 29 29 29 29 28 28 28 28 28 28 28 28
6 3 3 2 1 3 4 4 5 4 2 1 7 11 10 12 14 11 7 4 5 13 14 13 14 16 16 17 18 18 13 8 8 11 13 13 12 11 12 13 16 22 27 28 28 30 35 38 37 37 39 38 39 42 40 37 35 31 27 26 25 23 24 26 28 29 30 30 29 29 29 29 29 29 29 29 29 28 28 27 27 27 27 27 27 28
5 4 4 4 2 3 4 3 3 2 1 2 8 10 12 16 13 8 6 4 8 14 13 12 14 16 16 17 17 13 10 9 10 15 19 19 15 14 14 14 18 23 27 28 30 32 33 35 36 38 40 39 40 43 43 39 35 29 26 26 22 21 24 27 28 26 25 25 25 26 27 27 28 28 28 28 27 27 26 26 25 26 26 26 27 27
2 2 3 3 1 3 3 2 3 2 2 3 8 8 13 16 9 4 6 7 10 14 14 13 16 16 16 17 16 12 12 14 16 19 21 19 16 16 19 23 27 28 29 32 33 31 30 34 37 37 37 38 40 42 42 38 32 28 26 23 20 21 24 23 21 20 20 22 23 24 25 26 27 27 26 26 26 25 25 25 25 25 26 26 26 26
1 2 2 1 1 1 1 2 4 3 2 5 10 9 10 10 6 4 6 8 9 13 14 14 15 15 15 17 15 14 16 19 20 22 20 17 15 15 19 25 27 28 33 35 32 30 31 34 35 34 35 38 39 39 39 35 29 27 25 21 19 19 18 15 16 17 19 20 21 22 24 25 25 25 25 24 24 24 24 24 25 25 25 25 26 25
1 1 2 2 1 1 1 1 3 4 1 9 13 9 7 7 8 7 7 7 9 11 12 11 11 12 14 16 17 18 20 21 22 22 20 17 16 16 19 21 21 25 32 31 28 31 34 31 31 33 35 36 36 36 35 31 26 24 22 18 16 13 11 12 14 15 17 18 20 21 22 23 23 23 23 23 23 23 23 23 24 24 24 25 25 24
1 2 1 2 0 1 1 2 2 5 6 7 8 7 8 9 7 5 6 8 8 9 8 7 9 11 12 15 19 20 20 21 23 23 22 20 19 17 17 19 21 26 30 28 28 33 32 28 30 34 35 34 34 33 31 27 22 21 19 15 12 10 9 10 12 14 17 18 19 20 20 20 21 21 21 22 22 22 22 23 23 23 24 24 24 23
2 2 1 2 1 1 3 6 6 7 8 6 5 9 14 12 5 4 7 8 8 7 6 7 10 12 12 15 18 19 17 18 20 21 21 21 19 16 15 18 24 27 29 28 29 31 29 28 30 31 32 33 32 31 29 24 19 18 17 13 10 9 9 11 12 15 16 17 18 19 19 19 19 19 20 21 21 22 23 23 23 23 23 23 23 23
1 2 2 1 3 4 5 7 7 7 7 8 9 12 13 8 3 5 8 8 8 8 7 8 11 12 13 14 15 15 15 15 16 18 18 17 17 16 16 20 25 28 30 28 26 27 28 29 27 26 27 31 31 30 28 24 19 17 16 13 11 10 10 11 13 14 15 16 17 17 17 17 17 18 19 20 21 22 23 23 23 23 23 23 23 23
1 2 1 1 2 4 4 6 7 6 8 12 13 14 11 5 3 6 7 7 9 9 9 10 11 12 12 13 14 15 15 14 15 17 16 16 16 15 14 18 22 27 31 28 24 25 27 25 22 22 24 26 29 29 28 25 21 17 16 14 12 10 10 10 12 13 14 15 15 15 15 16 17 18 19 19 20 21 22 22 23 23 23 23 23 23
1 1 1 2 3 4 7 10 12 12 11 10 9 11 10 7 6 7 7 8 10 11 11 13 12 11 11 13 14 15 15 14 14 16 15 15 15 14 13 17 22 28 32 29 23 25 26 22 20 21 21 23 26 27 27 25 21 18 16 14 12 10 9 10 11 12 13 13 13 14 15 16 17 18 19 20 20 21 21 22 22 23 24 25 25 24
1 0 2 3 4 6 8 10 14 15 11 8 8 12 13 9 9 10 10 11 12 12 12 14 15 14 14 14 14 14 15 14 13 14 15 15 15 14 15 19 25 30 31 26 24 26 26 22 21 21 21 23 25 26 26 25 22 19 17 15 13 11 10 11 11 11 11 11 12 13 14 16 17 18 18 19 20 21 22 22 23 24 25 26 25 25
1 1 2 3 4 6 8 10 12 13 11 11 15 19 17 13 12 14 15 13 12 12 14 16 17 17 18 18 16 15 14 14 14 14 14 13 14 16 18 22 28 30 27 24 25 27 25 22 21 22 22 23 24 24 25 24 23 21 18 16 14 12 11 11 11 10 10 10 12 13 14 15 16 17 18 19 19 20 20 21 22 23 23 24 24 24
1 1 1 3 5 7 10 12 11 10 11 15 18 19 17 15 15 17 16 14 12 14 16 16 17 18 17 18 19 17 14 14 17 17 14 15 18 19 20 24 27 27 26 26 25 24 22 22 22 21 22 23 23 23 23 23 23 21 19 17 15 13 12 12 11 10 11 12 13 14 15 16 17 17 18 18 18 18 18 18 19 21 21 21 22 22
Wind_Direction
91 103 245 221 229 226 217 192 186 191 160 163 180 201 238 243 272 272 266 285 269 202 264 241 247 266 268 269 262 237 204 222 237 236 235 230 224 222 219 223 220 220 227 222 219 219 216 215 214 212 209 206 206 206 205 204 204 205 204 203 203 205 205 204 203 202 201 199 198 198 200 203 204 204 207 210 214 216 218 220 222 224 226 228 229 229
69 221 244 229 221 204 202 189 150 144 128 109 180 239 278 234 258 262 242 296 357 99 271 264 273 272 267 272 272 244 205 228 233 228 234 230 225 225 220 224 223 223 229 221 218 217 215 215 214 213 212 210 208 206 204 204 205 205 206 206 205 205 205 206 205 203 203 203 202 201 202 204 204 205 208 211 213 215 218 221 224 226 227 228 228 229
359 248 247 239 211 168 109 75 82 62 125 113 143 205 280 252 276 286 277 322 7 145 274 311 303 279 274 272 272 257 226 236 234 223 231 229 225 228 224 225 223 222 224 216 215 212 210 211 210 210 211 211 212 210 208 208 206 205 205 206 205 205 206 207 207 205 205 206 206 206 207 207 207 209 212 215 217 218 220 223 226 227 227 228 229 229
284 254 244 231 136 116 7 41 80 43 360 199 179 192 263 265 304 281 298 328 309 233 274 305 306 282 283 281 272 263 236 244 248 231 235 229 224 228 226 225 219 217 219 216 215 210 207 208 208 209 209 209 209 209 209 208 206 205 205 205 205 206 207 207 208 207 206 206 206 208 210 210 210 212 215 217 220 221 223 225 225 226 226 227 228 229
239 247 204 100 76 109 170 334 99 151 299 269 208 198 231 246 219 230 287 321 306 312 280 299 314 283 287 300 284 279 240 253 259 244 247 235 228 234 233 231 222 218 218 215 214 208 203 205 207 209 209 207 206 207 207 206 205 205 205 206 205 206 208 209 208 208 206 204 203 203 205 206 208 211 212 213 217 219 222 224 221 220 220 222 225 227
256 256 149 121 68 97 155 254 214 181 253 304 235 207 198 194 210 248 329 348 345 335 289 31 356 287 301 306 278 286 303 280 274 249 255 244 230 233 235 235 227 222 221 215 214 207 202 205 206 208 207 206 207 208 208 206 206 206 206 206 206 207 209 210 210 208 206 204 203 201 199 200 202 205 209 212 215 216 217 217 215 214 216 218 222 223
257 328 79 132 143 104 147 253 237 168 138 300 248 188 155 145 166 270 2 15 332 280 265 94 104 268 306 300 276 294 315 291 292 271 261 252 233 223 226 231 226 222 219 215 214 207 205 206 203 206 206 205 208 210 208 207 206 207 208 208 207 208 209 211 210 208 206 205 205 204 204 204 204 206 211 215 217 217 214 213 212 213 214 216 219 221
177 68 51 104 124 140 203 252 230 152 127 251 231 136 127 136 194 180 111 128 233 277 293 141 151 242 293 282 276 323 321 295 293 283 272 261 236 222 225 227 222 221 215 210 212 208 206 205 203 205 207 207 209 209 207 206 207 208 209 209 209 209 210 210 210 208 207 206 206 207 207 208 209 211 214 215 216 216 214 214 214 214 214 216 219 220
162 168 191 162 131 193 219 232 202 158 149 241 200 136 135 169 178 146 126 176 270 346 307 223 153 219 269 269 289 335 304 290 285 276 272 269 249 230 232 231 226 225 217 211 213 211 207 205 207 209 208 209 209 208 207 208 209 209 209 210 210 209 209 210 209 208 208 208 208 208 208 210 212 214 215 214 213 212 212 213 213 213 213 215 217 219
195 201 193 159 161 215 226 233 190 166 190 219 141 106 43 64 96 101 123 153 54 4 265 224 170 195 270 274 291 310 264 263 266 268 266 267 263 242 237 236 232 228 220 218 216 213 209 208 210 211 209 209 209 209 209 209 209 209 208 209 209 210 210 209 208 208 208 208 209 209 209 211 212 212 212 210 209 208 208 208 209 211 212 214 216 218
308 262 179 158 192 201 176 153 127 135 159 128 93 67 23 31 44 48 87 94 70 263 258 226 184 173 292 276 255 225 223 217 228 262 274 276 275 254 239 237 233 224 218 220 218 216 215 214 214 211 209 210 210 209 209 209 209 209 208 207 209 210 209 209 208 208 208 208 209 211 211 211 211 209 207 205 204 204 205 208 210 213 215 216 216 216
322 214 222 231 195 137 112 102 30 40 89 98 72 56 8 345 14 17 360 49 111 247 268 242 175 158 238 260 251 237 238 216 203 240 261 267 271 263 248 241 233 225 220 216 216 217 212 211 210 207 209 211 208 207 207 208 208 208 208 207 208 209 209 209 209 209 209 209 210 212 212 212 211 209 206 204 205 205 207 210 211 211 211 211 211 212
281 219 241 285 183 138 119 107 340 1 44 87 89 76 39 324 343 337 302 305 215 242 268 215 159 182 235 254 265 266 262 244 215 225 244 252 261 265 259 249 239 232 226 216 215 214 202 199 201 202 207 208 205 206 207 208 207 207 208 207 208 209 209 209 210 210 210 210 211 212 212 212 212 210 208 207 208 208 209 209 208 205 203 204 206 209
313 303 299 155 262 178 148 155 213 260 120 138 150 130 132 152 315 281 267 275 267 262 277 241 186 243 268 264 253 251 260 260 230 222 236 243 252 260 266 267 253 236 227 220 216 211 203 203 203 203 205 204 205 208 208 207 207 207 207 208 209 211 210 210 210 210 211 211 212 212 212 212 211 210 210 210 210 210 210 208 206 204 204 205 208 211
278 306 227 183 225 170 176 193 169 143 150 182 167 138 152 158 184 246 233 235 266 283 292 290 217 208 213 257 245 236 256 273 255 236 240 246 249 259 279 289 273 245 231 224 217 213 213 209 207 206 206 206 208 209 208 207 207 207 208 209 210 211 211 210 211 211 211 212 213 212 212 211 211 211 211 211 213 212 210 208 206 207 208 210 213 215
196 262 251 228 138 158 189 212 139 120 143 224 145 117 180 182 172 225 213 199 235 306 284 242 237 223 211 276 283 264 268 270 254 248 248 253 260 277 287 279 272 260 245 231 221 221 224 215 209 210 210 211 212 210 208 208 207 207 209 210 211 211 211 210 210 211 212 212 212 212 211 211 211 212 212 212 213 213 211 209 208 210 212 213 215 215
209 268 273 28 270 189 187 184 164 176 183 172 154 182 228 182 141 173 267 310 54 289 264 204 243 271 298 289 275 264 273 279 273 262 247 257 286 310 277 267 275 285 280 255 240 241 239 221 214 215 216 216 215 213 211 211 210 210 210 210 210 211 210 210 210 211 211 211 211 211 211 211 212 212 213 213 212 211 210 210 210 211 211 212 213 213
186 273 267 180 221 241 185 172 277 256 163 143 191 222 230 152 105 105 256 327 6 259 262 218 248 264 290 284 278 262 281 290 294 300 304 305 314 301 272 273 285 295 298 284 272 273 266 240 223 220 221 222 220 219 218 216 215 213 212 211 210 209 209 210 209 209 209 208 208 209 209 210 212 212 213 213 211 208 206 206 207 209 209 210 211 212
139 277 287 189 183 284 41 79 289 267 176 158 214 233 161 169 225 97 155 251 247 257 277 264 262 260 195 242 274 270 268 277 284 315 335 312 297 290 284 291 304 312 312 304 301 293 275 254 235 224 223 224 223 223 223 221 218 216 215 214 212 210 210 209 207 206 207 207 207 208 208 209 210 211 211 209 207 205 203 204 205 207 209 209 211 212
111 220 284 314 230 293 37 136 231 235 126 67 301 304 38 174 200 170 165 189 181 247 279 284 282 266 216 232 266 265 261 270 280 308 319 298 300 310 306 310 319 325 315 303 302 294 283 271 256 239 230 227 223 222 222 219 217 215 214 213 211 211 209 207 206 206 206 207 207 208 208 208 209 208 207 205 204 203 204 205 206 207 209 209 210 212
85 186 251 297 320 249 198 204 200 188 165 161 220 248 228 185 155 220 230 151 144 222 261 271 273 266 246 254 272 273 288 314 320 323 324 326 333 327 316 313 313 318 317 308 298 291 288 288 281 264 245 235 226 222 219 217 216 214 213 212 210 209 208 206 206 206 206 206 206 207 207 206 206 205 205 204 204 204 205 206 207 208 210 210 211 212
191 183 226 285 293 234 233 223 198 193 182 174 196 209 203 182 131 215 255 221 170 211 205 231 270 275 295 350 353 338 351 11 5 351 352 356 354 348 344 340 333 329 323 316 311 303 296 294 286 268 248 235 224 220 218 215 215 213 213 213 211 210 209 207 207 206 206 206 206 206 206 204 203 202 202 202 202 204 205 206 208 210 210 211 212 213
179 149 235 268 259 253 262 267 190 211 194 175 218 202 177 173 154 196 245 233 188 257 229 216 278 294 351 15 33 29 22 28 19 10 13 7 3 4 359 356 356 349 336 328 322 315 308 302 287 264 246 236 228 224 220 216 215 214 214 212 211 211 211 210 208 207 206 206 205 205 204 202 201 200 201 201 202 204 205 207 209 210 211 211 211 211
183 142 240 270 283 284 288 20 54 43 51 280 258 197 152 202 208 224 247 199 162 278 285 209 272 293 26 16 31 37 28 26 19 13 13 5 2 3 356 358 2 359 358 355 347 339 330 322 312 289 265 251 240 232 226 221 219 217 216 214 213 213 212 210 209 208 206 205 204 203 202 201 200 200 201 202 204 205 206 208 209 210 210 210 209 207
226 188 203 290 309 304 308 349 7 15 37 233 257 284 221 266 296 317 310 300 259 263 248 225 262 243 66 27 19 23 19 17 12 5 6 2 358 355 353 1 6 7 9 7 3 360 351 340 328 307 290 274 259 246 236 228 224 221 218 217 215 214 213 211 209 208 206 204 203 202 202 201 201 202 202 204 205 206 207 208 209 209 208 208 207 205
232 196 179 248 274 281 287 294 316 360 307 258 320 338 320 245 251 267 291 252 249 262 253 245 262 257 33 24 16 15 9 5 360 355 358 357 353 356 1 7 11 11 10 6 3 2 356 348 335 315 302 288 277 268 254 241 232 227 224 221 219 215 213 210 209 207 205 203 202 202 202 201 202 203 204 205 206 206 208 209 208 208 208 208 207 206
311 264 221 222 240 254 264 269 298 30 322 300 313 312 311 271 233 228 268 253 255 279 269 252 262 280 4 9 4 4 2 359 351 347 351 349 351 3 8 8 10 8 5 2 0 358 356 354 348 340 329 308 288 277 267 253 242 234 229 225 222 217 214 211 208 206 205 203 203 203 202 202 204 205 205 207 207 208 209 209 208 208 208 209 209 207
141 279 254 222 239 254 266 281 319 353 313 297 303 304 308 314 287 238 245 258 270 280 269 273 288 322 15 5 356 352 352 353 347 342 343 341 348 6 6 5 6 3 1 360 357 355 354 353 352 351 347 336 314 286 267 255 247 240 234 230 225 219 216 212 208 206 205 204 204 204 204 204 205 206 206 207 208 209 210 209 209 210 210 210 210 209
168 270 273 230 262 267 275 292 311 314 298 295 309 321 327 328 325 299 272 277 288 282 290 316 335 20 25 1 351 346 344 346 341 334 331 332 348 8 5 4 4 360 357 355 351 350 351 352 353 350 347 345 337 318 289 264 251 245 238 234 228 223 219 214 210 208 205 205 206 206 205 204 205 206 206 207 209 210 210 210 210 211 211 212 211 210
149 275 301 322 285 283 290 305 317 309 310 332 357 2 353 340 345 351 337 334 336 331 351 357 12 46 26 355 339 335 335 335 332 330 332 340 357 6 3 2 359 355 353 350 345 344 347 348 347 346 344 344 340 333 317 290 268 254 245 238 232 227 222 215 211 209 207 207 208 207 205 204 204 205 205 207 210 211 211 211 211 210 211 212 211 209
147 261 334 21 298 288 301 350 22 340 321 6 20 10 356 351 9 19 9 3 360 360 6 7 13 16 3 345 329 325 328 334 336 336 336 345 360 0 358 358 354 350 348 344 340 339 342 342 340 342 344 340 336 332 326 310 289 269 256 246 238 232 225 217 213 212 210 210 209 206 204 203 204 205 206 208 209 210 210 210 210 210 210 211 210 208
193 280 346 30 308 288 311 15 352 323 320 35 34 10 350 353 15 14 11 18 11 358 4 13 16 356 339 330 324 324 332 338 340 337 331 339 356 355 355 356 351 347 343 338 336 337 338 337 335 337 338 336 332 327 325 320 304 281 264 257 248 237 227 218 215 214 213 212 209 206 204 203 203 205 206 207 208 208 209 209 208 209 209 210 210 210
101 336 328 14 314 291 308 339 331 322 319 24 49 13 344 343 1 354 1 28 22 24 17 10 3 337 327 323 323 328 334 337 339 333 325 333 351 350 356 358 348 338 333 331 333 335 332 328 328 330 330 329 327 322 320 320 312 294 279 272 259 241 227 220 217 216 215 212 209 206 205 204 203 204 205 206 207 207 207 207 207 208 209 210 212 213
20 33 275 265 259 287 300 321 328 319 308 276 91 37 348 326 340 341 328 355 27 51 41 350 318 328 329 321 320 325 327 330 332 321 313 325 358 354 357 354 336 325 329 332 331 330 327 325 326 327 326 324 323 320 317 316 314 305 295 284 265 243 228 222 218 216 214 211 209 206 204 204 203 204 204 204 204 205 205 206 207 209 211 212 213 213
318 323 275 226 191 277 303 330 322 302 278 190 148 43 349 288 288 327 304 259 40 36 19 352 335 336 336 324 317 321 320 321 319 306 295 309 21 6 352 338 326 330 338 335 330 329 327 328 327 325 324 323 321 319 317 314 314 309 300 287 265 243 230 222 217 215 213 210 207 205 204 203 203 203 202 202 202 203 205 206 209 211 213 215 216 215
279 281 296 232 214 294 312 318 309 282 139 146 207 1 1 347 331 337 316 149 50 24 4 351 339 337 338 327 319 322 319 315 309 294 288 348 22 6 340 324 328 339 339 330 327 326 325 325 324 320 319 319 317 317 315 312 312 310 302 287 263 243 229 220 216 214 211 208 206 205 204 203 202 201 200 200 200 203 206 208 210 212 214 216 217 216
182 288 356 356 203 349 310 292 295 233 160 31 354 350 354 335 311 314 298 238 62 31 6 353 344 340 340 331 324 327 322 314 305 289 336 18 3 345 327 323 329 332 329 324 322 321 321 321 319 317 315 314 314 314 311 310 311 308 298 282 261 242 228 219 216 214 210 208 207 205 204 202 200 199 198 199 201 204 207 209 211 213 214 215 214 213
32 48 46 350 314 31 333 305 314 287 261 347 334 309 310 291 279 285 273 245 44 24 7 356 345 338 335 329 328 329 325 317 307 304 332 349 336 329 328 326 325 326 325 322 320 322 323 320 317 316 316 316 314 313 312 311 310 305 292 276 258 240 226 219 217 215 211 210 208 205 203 201 200 198 198 200 203 206 208 210 212 213 215 216 215 214
25 25 70 67 360 4 344 312 317 306 260 324 316 313 327 322 309 300 265 233 19 8 356 346 336 331 330 327 327 328 322 311 305 312 324 327 323 327 328 321 322 325 323 321 321 324 323 321 321 322 321 319 316 316 317 315 310 303 289 273 258 239 226 222 221 217 214 211 207 204 201 200 199 200 201 202 205 208 209 211 213 214 216 217 217 217
31 6 36 54 16 347 342 304 290 277 216 315 317 322 335 329 322 312 280 287 358 351 341 339 333 330 332 330 328 326 319 313 312 316 318 317 317 324 330 330 329 325 322 322 323 324 324 324 325 323 320 318 317 317 318 316 311 302 288 275 259 239 230 229 225 219 214 209 204 201 200 200 200 202 203 205 208 210 212 213 213 214 216 217 217 218
36 358 29 51 8 339 330 282 279 248 207 310 324 342 348 336 324 303 300 321 342 334 330 340 337 333 337 334 328 322 314 309 308 307 308 311 317 325 331 332 328 323 323 322 322 326 329 327 323 319 317 317 318 318 317 315 309 299 289 278 260 243 239 235 226 217 210 204 200 199 200 202 203 205 207 209 211 212 213 214 215 215 216 217 216 217
17 336 357 26 335 309 270 260 287 262 174 11 347 353 9 354 321 300 320 326 325 324 334 343 337 336 339 332 321 313 308 306 307 306 307 312 318 322 327 327 325 324 324 321 323 330 332 325 321 320 318 319 320 319 319 316 308 297 290 280 263 254 249 235 219 211 204 199 198 200 201 203 205 207 209 211 212 213 214 215 216 218 218 217 216 217
354 317 324 325 295 263 270 303 299 276 8 20 358 349 11 351 308 300 315 313 315 329 340 338 330 334 335 324 313 309 309 311 312 311 311 314 315 317 320 321 324 326 322 319 325 332 329 323 321 320 318 319 321 322 321 318 307 297 293 284 272 265 249 226 214 206 200 199 199 200 202 204 206 209 211 214 215 216 216 215 216 217 217 216 215 216
174 137 294 299 63 88 296 265 282 294 316 357 5 338 316 305 294 303 318 313 321 337 337 322 318 326 325 314 309 310 312 314 315 315 315 314 312 314 316 319 326 325 318 316 324 328 325 322 321 320 319 321 323 324 325 320 308 301 299 292 281 268 242 224 213 204 201 200 199 200 202 205 209 212 215 217 218 216 216 216 215 214 215 215 214 214
154 120 165 231 223 197 240 252 274 295 301 323 347 316 302 296 294 325 325 322 327 330 324 314 313 315 315 310 308 308 310 312 314 314 312 308 307 310 315 321 325 321 314 314 319 322 323 322 320 318 318 321 325 328 328 323 312 306 306 299 285 267 243 226 214 205 202 200 199 202 205 207 211 215 218 220 218 216 215 214 212 211 212 213 213 215
151 101 111 210 274 288 264 261 275 284 293 311 317 307 300 301 321 332 328 326 317 309 308 308 305 305 308 308 306 304 303 305 307 306 304 303 305 308 314 319 320 318 313 311 315 321 324 322 319 318 318 321 326 331 331 326 318 310 307 303 291 271 248 230 216 207 202 201 202 205 206 209 212 215 218 220 219 218 217 215 213 212 211 213 214 217
162 111 122 206 270 314 301 280 285 299 307 313 315 309 302 296 305 317 315 305 301 302 301 297 294 295 296 296 296 296 296 298 301 301 303 306 304 304 309 313 316 318 314 309 312 322 322 317 316 317 317 319 325 331 333 329 321 313 310 308 298 277 254 235 218 210 206 205 206 207 209 211 213 213 215 216 216 216 217 217 217 215 214 215 215 216
189 98 288 228 237 272 274 280 299 306 292 285 302 312 304 287 284 293 290 291 302 304 294 286 286 288 290 290 290 290 291 294 298 300 304 307 303 302 308 311 315 317 313 308 313 323 321 314 313 315 315 317 322 328 331 330 324 317 313 310 301 283 259 239 225 218 215 212 211 212 213 214 216 216 216 215 216 216 217 218 220 220 221 223 221 220
149 358 265 259 268 268 269 293 318 316 293 276 309 319 311 299 293 293 295 302 307 302 293 289 288 286 286 287 287 287 288 291 293 296 300 303 303 303 307 313 317 315 311 310 318 323 317 310 310 313 313 315 320 326 330 330 327 321 316 310 303 287 264 247 236 229 224 219 217 217 218 218 219 219 218 218 220 222 224 226 227 228 231 234 233 232
58 273 270 295 300 298 306 320 328 321 306 308 321 321 317 312 302 297 299 304 305 302 301 298 293 288 284 283 284 285 287 289 291 294 297 299 301 303 308 314 316 313 310 313 318 316 310 307 309 312 312 313 319 325 327 328 328 325 318 313 305 292 274 260 249 238 232 228 225 224 223 222 221 221 222 223 225 227 230 234 236 238 242 245 246 246
147 201 349 338 301 295 308 317 321 312 301 305 313 315 313 309 301 296 300 305 306 305 304 299 295 292 288 284 284 282 278 283 289 292 294 296 297 300 308 314 313 311 310 313 313 310 307 308 310 312 312 313 317 322 324 325 327 326 322 316 307 294 280 268 255 245 242 238 234 232 230 227 226 225 225 227 228 230 234 239 243 246 247 249 253 256